Waarnemingen

Advertentie
Mijn weer
Vinga, Zweden (2516): temperatuur & dauwpunt: 14.01.2021 22:00:00 - 20.01.2021 22:00:00 (CET)Vinga, Zweden (2516): windsnelheid & windstoten: 14.01.2021 22:00:00 - 20.01.2021 22:00:00 (CET)Vinga, Zweden (2516): windrichting: 14.01.2021 22:00:00 - 20.01.2021 22:00:00 (CET)Vinga, Zweden (2516): luchtdruk: 14.01.2021 22:00:00 - 20.01.2021 22:00:00 (CET)Vinga, Zweden (2516): zicht: 14.01.2021 22:00:00 - 20.01.2021 22:00:00 (CET)Vinga, Zweden (2516): neerslag: 14.01.2021 22:00:00 - 20.01.2021 22:00:00 (CET)
Datum & Tijd tt [°C] td [°C] ff [km/u] ff [kn] fx [km/u] fx [kn] dd ppp [hPa] vv [km] rr [mm]
20.01.2021 22:00:00 4,5 4,2 42 23 48 26 ZZW 987,8 2,9 0,9
20.01.2021 21:00:00 4,6 4,3 38 21 45 24 Z 988,0 3,8 0,0
20.01.2021 20:00:00 4,4 4,1 40 21 50 27 Z 988,1 2,8 0,0
20.01.2021 19:00:00 4,7 4,4 40 21 46 25 ZZW 987,9 7 0,0
20.01.2021 18:00:00 4,6 4,3 39 21 49 26 ZZW 987,7 6 0,0
20.01.2021 17:00:00 4,5 4,2 37 20 45 24 ZZW 987,5 6 0,0
20.01.2021 16:00:00 4,3 4,0 37 20 52 28 ZZW 987,2 4,0 0,2
20.01.2021 15:00:00 4,2 3,9 40 21 48 26 Z 986,9 4,1 1,1
20.01.2021 14:00:00 4,0 3,7 38 20 45 24 Z 987,2 3,4 1,4
20.01.2021 13:00:00 3,8 3,5 38 21 49 26 Z 987,8 3,0 2,6
20.01.2021 12:00:00 3,9 3,6 33 18 42 23 ZZO 988,5 3,5 1,7
20.01.2021 11:00:00 2,8 2,5 33 18 44 24 ZO 989,3 3,7 0,8
20.01.2021 10:00:00 2,3 1,7 36 19 44 24 OZO 990,2 12 0,8
20.01.2021 09:00:00 1,9 1,2 30 16 37 20 OZO 991,3 11 0,3
20.01.2021 08:00:00 1,9 1,3 29 15 35 19 OZO 992,3 8 0,5
20.01.2021 07:00:00 1,8 1,4 24 13 31 17 OZO 993,3 12 0,2
20.01.2021 06:00:00 1,7 1,4 25 14 30 16 OZO 994,1 11 0,2
20.01.2021 05:00:00 1,5 1,2 22 12 28 15 OZO 995,0 7 0,0
20.01.2021 04:00:00 1,4 1,1 23 13 30 16 OZO 995,7 3,5 0,0
20.01.2021 03:00:00 1,5 1,2 24 13 32 17 OZO 996,3 0,8 0,0
20.01.2021 02:00:00 1,5 1,2 25 14 31 17 OZO 996,6 2,5 0,0
20.01.2021 01:00:00 1,6 1,3 23 12 33 18 ZO 997,0 2,4 0,0
20.01.2021 00:00:00 1,8 1,5 28 15 33 18 ZO 997,4 3,1 0,0
19.01.2021 23:00:00 1,8 1,4 26 14 34 18 ZZO 997,6 3,0 0,0
19.01.2021 22:00:00 1,8 1,4 29 16 36 19 ZZO 997,7 9 0,0
19.01.2021 21:00:00 1,7 1,3 29 16 37 20 ZZO 997,9 9 0,0
19.01.2021 20:00:00 1,7 1,1 29 15 37 20 ZZO 997,9 12 -
19.01.2021 19:00:00 1,7 1,3 30 16 39 21 ZZO 997,9 7 0,1
19.01.2021 18:00:00 1,5 0,9 29 15 37 20 ZZO 998,2 7 0,0
19.01.2021 17:00:00 1,7 1,1 30 16 42 23 ZO 998,3 5 0,0
19.01.2021 16:00:00 1,6 1,0 40 21 48 26 ZZO 998,2 6 0,3
19.01.2021 15:00:00 2,3 2,0 32 18 40 22 ZZO 998,6 4,8 0,0
19.01.2021 14:00:00 2,3 2,0 34 19 44 24 ZO 998,9 5 0,0
19.01.2021 13:00:00 2,2 2,0 36 20 50 27 ZZO 999,6 6 0,3
19.01.2021 12:00:00 2,1 1,8 39 21 50 27 ZZO 999,9 3,4 0,8
19.01.2021 11:00:00 1,9 1,6 38 20 49 26 ZO 1000,3 10 0,1
19.01.2021 10:00:00 1,9 1,6 37 20 49 26 ZZO 1000,9 4,2 1,0
19.01.2021 09:00:00 2,3 2,0 32 17 42 23 ZO 1001,6 4,2 1,3
19.01.2021 08:00:00 2,3 2,0 29 16 36 20 ZZO 1002,3 0,5 0,0
19.01.2021 07:00:00 2,5 2,2 27 15 33 18 ZZO 1003,0 4,8 0,0
19.01.2021 06:00:00 2,5 2,2 24 13 31 17 ZZO 1003,7 2,7 0,0
19.01.2021 05:00:00 2,4 2,1 19 11 25 13 ZZO 1004,2 6 0,0
19.01.2021 04:00:00 2,4 2,1 19 11 26 14 Z 1004,8 6 0,0
19.01.2021 03:00:00 1,8 1,5 23 13 29 16 Z 1005,4 0,3 0,0
19.01.2021 02:00:00 1,3 1,0 26 14 31 17 Z 1005,8 0,8 0,1
19.01.2021 01:00:00 1,6 1,3 24 13 28 15 ZZW 1006,5 0,3 0,0
19.01.2021 00:00:00 2,5 2,2 24 13 36 19 Z 1007,0 3,1 0,0
18.01.2021 23:00:00 2,5 2,2 27 15 34 18 Z 1006,6 2,5 0,0
18.01.2021 22:00:00 2,3 2,0 31 17 54 29 Z 1006,8 5 0,1
18.01.2021 21:00:00 1,2 0,9 41 22 50 27 ZZO 1006,7 2,5 0,1
18.01.2021 20:00:00 0,8 0,5 37 20 48 26 ZZO 1007,2 2,6 0,1
18.01.2021 19:00:00 0,9 0,6 37 20 45 25 ZO 1007,7 2,5 0,4
18.01.2021 18:00:00 1,6 1,2 39 21 46 25 ZZO 1008,1 2,5 0,0
18.01.2021 17:00:00 1,8 1,5 37 20 46 25 ZZO 1008,7 2,7 0,0
18.01.2021 16:00:00 2,0 1,7 35 19 44 24 ZZO 1009,2 1,3 0,1
18.01.2021 15:00:00 2,1 1,7 36 19 43 23 Z 1009,7 2,0 0,0
18.01.2021 14:00:00 2,2 1,5 32 17 40 22 Z 1010,5 4,8 0,0
18.01.2021 13:00:00 2,1 1,4 32 17 40 21 Z 1011,3 3,5 0,0
18.01.2021 12:00:00 2,0 0,8 33 18 38 20 Z 1011,9 8 0,0
18.01.2021 11:00:00 1,8 0,5 33 18 39 21 Z 1012,9 7 0,0
18.01.2021 10:00:00 1,5 0,2 31 17 38 20 Z 1013,1 7 0,0
18.01.2021 09:00:00 1,6 -0,8 33 18 38 21 Z 1013,6 14 0,0
18.01.2021 08:00:00 1,3 -1,1 32 17 36 20 Z 1013,8 16 0,0
18.01.2021 07:00:00 0,9 -0,4 28 15 36 19 Z 1014,3 8 0,1
18.01.2021 06:00:00 0,8 -1,8 28 15 34 19 ZZW 1014,8 4,8 0,0
18.01.2021 05:00:00 1,0 -2,1 24 13 28 15 ZZW 1015,5 19 0,0
18.01.2021 04:00:00 0,9 -1,5 22 12 29 16 ZW 1015,9 11 0,0
18.01.2021 03:00:00 0,9 -1,8 25 13 30 16 ZZW 1016,3 12 0,0
18.01.2021 02:00:00 0,8 -2,1 24 13 32 18 ZW 1016,8 16 0,0
18.01.2021 01:00:00 0,9 -2,3 27 15 32 17 ZW 1017,4 25 0,0
18.01.2021 00:00:00 0,9 -1,7 23 12 28 15 ZW 1017,9 18 0,0
17.01.2021 23:00:00 1,1 -1,8 19 10 31 17 ZW 1018,4 28 0,2
17.01.2021 22:00:00 1,3 -1,4 24 13 29 16 Z 1018,5 44 0,0
17.01.2021 21:00:00 1,3 -2,1 24 13 27 15 ZZW 1018,8 50 0,0
17.01.2021 20:00:00 1,0 -2,2 13 7 17 9 Z 1019,1 50 0,0
17.01.2021 19:00:00 0,7 -3,2 11 6 14 8 Z 1019,2 50 0,0
17.01.2021 18:00:00 0,2 -4,1 5 3 16 9 ZW 1019,5 50 0,0
17.01.2021 17:00:00 0,0 -2,1 13 7 16 9 OZO 1019,4 48 0,0
17.01.2021 16:00:00 0,5 -3,6 8 4 18 10 ZZW 1019,5 50 0,0
17.01.2021 15:00:00 -0,2 -1,3 13 7 23 12 ZO 1019,3 36 0,0
17.01.2021 14:00:00 -0,4 -1,5 19 10 25 13 ZO 1019,4 36 -
17.01.2021 13:00:00 -0,2 -1,6 17 9 33 18 ZZO 1019,6 12 0,0
17.01.2021 12:00:00 -0,8 -1,4 16 9 22 12 ZZO 1019,8 3,3 0,0
17.01.2021 11:00:00 -0,6 -2,0 15 8 22 12 ZO 1019,8 42 0,0
17.01.2021 10:00:00 -1,1 -2,2 15 8 24 13 ZO 1019,5 33 0,0
17.01.2021 09:00:00 -1,3 -2,6 18 10 23 13 ZO 1019,1 27 0,0
17.01.2021 08:00:00 -1,5 -2,9 18 10 23 13 ZO 1018,8 41 0,0
17.01.2021 07:00:00 -1,8 -3,1 14 8 21 12 ZO 1018,5 46 0,0
17.01.2021 06:00:00 -1,8 -3,1 14 8 24 13 ZO 1018,4 40 0,0
17.01.2021 05:00:00 -2,1 -3,5 17 9 27 15 ZZO 1018,4 42 0,0
17.01.2021 04:00:00 -2,6 -4,2 21 11 27 15 ZO 1018,3 48 0,0
17.01.2021 03:00:00 -2,7 -4,4 22 12 28 15 ZZO 1018,4 50 0,0
17.01.2021 02:00:00 -2,9 -4,8 20 11 25 14 ZO 1018,4 50 0,0
17.01.2021 01:00:00 -3,1 -4,8 14 8 23 13 ZO 1018,6 50 0,0
17.01.2021 00:00:00 -3,8 -5,6 15 8 20 11 O 1018,9 50 0,0
16.01.2021 23:00:00 -4,2 -5,9 15 8 20 11 O 1019,1 50 0,0
16.01.2021 22:00:00 -4,2 -5,9 10 5 17 9 O 1019,3 50 0,0
16.01.2021 21:00:00 -4,4 -6,1 12 7 21 11 O 1019,3 50 0,0
16.01.2021 20:00:00 -3,4 -6,5 9 5 13 7 O 1019,3 50 0,0
16.01.2021 19:00:00 -3,1 -6,4 5 3 9 5 O 1019,7 50 0,0
16.01.2021 18:00:00 -3,4 -7,0 6 3 10 5 O 1019,8 50 0,0
16.01.2021 17:00:00 -3,3 -6,8 4 2 8 4 NNO 1020,3 50 0,0
16.01.2021 16:00:00 -3,0 -7,0 4 2 15 8 ONO 1020,3 50 0,0
16.01.2021 15:00:00 -2,6 -5,6 9 5 17 9 NNO 1020,7 50 0,0
16.01.2021 14:00:00 -1,8 -4,3 12 6 23 12 N 1021,0 49 0,0
16.01.2021 13:00:00 -1,7 -4,4 16 9 27 15 N 1021,9 45 0,0
16.01.2021 12:00:00 -2,1 -4,3 16 9 28 15 N 1022,4 42 0,0
16.01.2021 11:00:00 -2,1 -4,8 18 10 29 15 N 1022,8 43 0,0
16.01.2021 10:00:00 -2,3 -5,1 16 9 33 18 N 1023,1 50 0,0
16.01.2021 09:00:00 -2,5 -5,5 18 10 34 19 N 1023,5 50 0,0
16.01.2021 08:00:00 -2,5 -5,8 23 12 30 16 NNW 1023,9 50 0,0
16.01.2021 07:00:00 -3,7 -5,1 13 7 21 11 N 1024,5 50 0,0
16.01.2021 06:00:00 -4,4 -5,8 10 5 14 8 NNO 1025,0 50 0,0
16.01.2021 05:00:00 -4,3 -5,7 10 6 14 8 NNO 1025,2 50 0,0
16.01.2021 04:00:00 -4,7 -5,9 9 5 11 6 NO 1025,9 43 0,0
16.01.2021 03:00:00 -4,7 -6,1 7 4 10 5 N 1026,2 46 0,0
16.01.2021 02:00:00 -5,0 -6,7 6 3 11 6 N 1026,7 50 0,0
16.01.2021 01:00:00 -5,0 -7,1 9 5 11 6 NNO 1027,1 50 0,0
16.01.2021 00:00:00 -5,2 -8,3 7 4 16 9 NNO 1027,6 50 0,0
15.01.2021 23:00:00 -5,3 -6,8 10 5 13 7 NNO 1027,7 47 0,0
15.01.2021 22:00:00 -5,6 -7,9 9 5 13 7 NNO 1027,7 50 0,0
15.01.2021 21:00:00 -5,8 -7,9 11 6 21 11 NO 1027,8 50 0,0
15.01.2021 20:00:00 -5,8 -8,1 14 8 24 13 NNO 1027,9 50 0,0
15.01.2021 19:00:00 -5,8 -8,4 18 10 29 16 NNO 1027,6 50 0,0
15.01.2021 18:00:00 -5,6 -8,8 20 11 27 15 NNO 1027,5 50 0,0
15.01.2021 17:00:00 -5,1 -9,2 21 12 34 18 NNO 1027,4 50 0,0
15.01.2021 16:00:00 -4,2 -8,3 21 11 30 16 N 1026,9 50 0,0
15.01.2021 15:00:00 -3,8 -8,1 17 9 26 14 N 1027,0 45 0,0
15.01.2021 14:00:00 -3,7 -7,5 16 9 24 13 N 1027,0 44 0,0
15.01.2021 13:00:00 -3,4 -6,8 16 9 22 12 NNO 1027,2 48 0,0
15.01.2021 12:00:00 -3,6 -6,4 12 6 20 11 NNO 1027,5 48 0,0
15.01.2021 11:00:00 -3,8 -6,9 14 7 26 14 NNO 1027,6 46 0,0
15.01.2021 10:00:00 -3,5 -8,0 19 11 26 14 NNO 1027,3 50 0,0
15.01.2021 09:00:00 -4,1 -7,7 17 9 23 12 NNO 1027,0 50 0,0
15.01.2021 08:00:00 -4,3 -7,9 16 9 23 13 NNO 1026,8 50 0,0
15.01.2021 07:00:00 -4,2 -7,6 16 9 23 12 NNO 1026,6 50 0,0
15.01.2021 06:00:00 -4,0 -6,8 16 9 23 13 N 1026,4 50 0,0
15.01.2021 05:00:00 -3,6 -6,1 17 9 23 13 NNO 1026,2 50 0,0
15.01.2021 04:00:00 -3,1 -5,6 16 9 24 13 N 1026,1 50 0,0
15.01.2021 03:00:00 -3,5 -7,1 14 8 25 14 N 1026,1 50 0,0
15.01.2021 02:00:00 -3,6 -6,9 17 9 26 14 NO 1025,9 50 0,0
15.01.2021 01:00:00 -3,5 -7,1 19 11 27 15 NO 1026,2 50 0,0
15.01.2021 00:00:00 -3,8 -7,1 21 11 36 20 NO 1026,2 50 0,0
14.01.2021 23:00:00 -3,7 -6,8 28 15 34 19 NO 1026,0 50 0,0
14.01.2021 22:00:00 -3,3 -5,9 24 13 31 17 NNO 1025,8 50 0,0

tt = temperatuur
td = dauwpunt
ff = windsnelheid
fx = windstoten
dd = windrichting
ppp = luchtdruk
vv = zicht
rr = neerslag

Weerstations in de omgeving